Location: Austin
(30.3000°N, 97.7500°W)
Time: 22:00:36
(UTC-05:00)

BREEZE-M DEB (TANK) - Pass Details

Date: 15 May 2024
Orbit: 319 x 17918 km, 53.0° (Epoch: 23 June)

Event Time Altitude Azimuth Distance (km) Brightness Sun altitude
Rises 23:01:00 0° 222° (SW) 14,197 9.4 -29.2°
Reaches altitude 10° 23:17:10 10° 225° (SW) 9,732 8.5 -31.4°
Maximum altitude 23:40:19 69° 309° (NW) 1,570 4.5 -34.2°
Drops below altitude 10° 23:45:11 10° 34° (NE) 2,312 5.7 -34.7°
Sets 23:46:34 0° 37° (NE) 2,891 6.3 -34.9°
